START_TIME,STEP,MOV.,M6,t_acc.,M7,t_acc.,M19,t_acc.,H36,t_acc.
1979-07-11 15:00:27.450 ,1,0,40.,12.0,0.,12.0,0.,12.0,4.,12.0
1979-07-11 15:00:39.450 ,1,0,32.,12.0,0.,12.0,0.,12.0,6.,12.0
1979-07-11 15:00:51.450 ,2,1,28.,12.0,0.,12.0,0.,12.0,4.,12.0
1979-07-11 15:01:03.450 ,2,1,39.,12.0,0.,12.0,0.,12.0,3.,12.0
1979-07-11 15:01:15.450 ,2,0,39.,12.0,0.,12.0,0.,12.0,5.,12.0
1979-07-11 15:01:27.450 ,2,0,37.,12.0,0.,12.0,0.,12.0,2.,12.0
1979-07-11 15:01:39.450 ,3,1,37.,12.0,0.,12.0,0.,12.0,5.,12.0
1979-07-11 15:01:51.450 ,3,1,61.,12.0,0.,12.0,0.,12.0,9.,12.0
1979-07-11 15:02:03.450 ,3,0,59.,12.0,0.,12.0,0.,12.0,12.,12.0
1979-07-11 15:02:15.450 ,3,0,63.,12.0,0.,12.0,0.,12.0,12.,12.0
1979-07-11 15:02:27.450 ,4,1,52.,12.0,0.,12.0,0.,12.0,8.,12.0
1979-07-11 15:02:39.450 ,4,1,60.,12.0,0.,12.0,0.,12.0,11.,12.0
1979-07-11 15:02:51.450 ,4,0,51.,12.0,0.,12.0,0.,12.0,12.,12.0
1979-07-11 15:03:03.450 ,4,0,63.,12.0,0.,12.0,0.,12.0,7.,12.0
1979-07-11 15:03:15.450 ,5,1,42.,12.0,0.,12.0,0.,12.0,11.,12.0
1979-07-11 15:03:27.450 ,5,1,50.,12.0,0.,12.0,0.,12.0,3.,12.0
1979-07-11 15:03:39.450 ,5,0,48.,12.0,0.,12.0,0.,12.0,1.,12.0
1979-07-11 15:03:51.450 ,5,0,53.,12.0,0.,12.0,0.,12.0,7.,12.0
1979-07-11 15:04:03.450 ,6,1,44.,12.0,0.,12.0,0.,12.0,12.,12.0
1979-07-11 15:04:15.450 ,6,1,43.,12.0,0.,12.0,0.,12.0,8.,12.0
1979-07-11 15:04:27.450 ,6,0,42.,12.0,0.,12.0,0.,12.0,7.,12.0
1979-07-11 15:04:39.450 ,6,0,45.,12.0,0.,12.0,0.,12.0,10.,12.0
1979-07-11 15:04:51.450 ,7,1,37.,12.0,0.,12.0,0.,12.0,1.,12.0
1979-07-11 15:05:03.450 ,7,1,5.,12.0,0.,12.0,0.,12.0,0.,12.0
1979-07-11 15:05:15.450 ,7,0,0.,12.0,0.,12.0,0.,12.0,0.,12.0
1979-07-11 15:05:27.450 ,7,0,0.,12.0,0.,12.0,0.,12.0,0.,12.0
1979-07-11 15:05:39.450 ,7,1,0.,12.0,0.,12.0,0.,12.0,0.,12.0
1979-07-11 15:05:51.450 ,7,1,0.,12.0,0.,12.0,0.,12.0,0.,12.0
1979-07-11 15:06:03.450 ,7,0,0.,12.0,0.,12.0,0.,12.0,0.,12.0
1979-07-11 15:06:15.450 ,7,0,0.,12.0,0.,12.0,0.,12.0,0.,12.0
1979-07-11 15:06:27.450 ,6,1,0.,12.0,0.,12.0,0.,12.0,0.,12.0
1979-07-11 15:06:39.450 ,6,1,39.,12.0,0.,12.0,0.,12.0,4.,12.0
1979-07-11 15:06:51.450 ,6,0,45.,12.0,0.,12.0,0.,12.0,4.,12.0
1979-07-11 15:07:03.450 ,6,0,48.,12.0,0.,12.0,0.,12.0,7.,12.0
1979-07-11 15:07:15.450 ,5,1,54.,12.0,0.,12.0,0.,12.0,9.,12.0
1979-07-11 15:07:27.450 ,5,1,66.,12.0,0.,12.0,0.,12.0,16.,12.0
1979-07-11 15:07:39.450 ,5,0,74.,12.0,0.,12.0,0.,12.0,12.,12.0
1979-07-11 15:07:51.450 ,5,0,72.,12.0,0.,12.0,0.,12.0,10.,12.0
1979-07-11 15:10:27.450 ,0,0,42.,12.0,0.,12.0,0.,12.0,8.,12.0
1979-07-11 15:10:39.450 ,0,0,46.,12.0,0.,12.0,0.,12.0,6.,12.0
1979-07-11 15:10:51.450 ,0,0,39.,12.0,0.,12.0,0.,12.0,5.,12.0
1979-07-11 15:11:03.450 ,0,0,46.,12.0,0.,12.0,0.,12.0,2.,12.0
1979-07-11 15:11:15.450 ,0,1,36.,12.0,0.,12.0,0.,12.0,7.,12.0
1979-07-11 15:11:27.450 ,0,1,39.,12.0,0.,12.0,0.,12.0,4.,12.0
1979-07-11 15:11:39.450 ,0,0,39.,12.0,0.,12.0,0.,12.0,4.,12.0
1979-07-11 15:11:51.450 ,0,0,32.,12.0,0.,12.0,0.,12.0,3.,12.0
1979-07-11 15:12:03.450 ,0,1,28.,12.0,0.,12.0,0.,12.0,0.,12.0
1979-07-11 15:12:15.450 ,0,1,39.,12.0,0.,12.0,0.,12.0,3.,12.0
1979-07-11 15:12:27.450 ,0,0,30.,12.0,0.,12.0,0.,12.0,9.,12.0
1979-07-11 15:12:39.450 ,0,0,37.,12.0,0.,12.0,0.,12.0,2.,12.0
1979-07-11 15:12:51.450 ,1,1,36.,12.0,0.,12.0,0.,12.0,2.,12.0
1979-07-11 15:13:03.450 ,1,1,41.,12.0,0.,12.0,0.,12.0,6.,12.0
1979-07-11 15:13:15.450 ,1,0,44.,12.0,0.,12.0,0.,12.0,3.,12.0
1979-07-11 15:13:27.450 ,1,0,35.,12.0,0.,12.0,0.,12.0,2.,12.0
1979-07-11 15:13:39.450 ,2,1,40.,12.0,0.,12.0,0.,12.0,10.,12.0
1979-07-11 15:13:51.450 ,2,1,50.,12.0,0.,12.0,0.,12.0,10.,12.0
1979-07-11 15:14:03.450 ,2,0,54.,12.0,0.,12.0,0.,12.0,3.,12.0
1979-07-11 15:14:15.450 ,2,0,40.,12.0,0.,12.0,0.,12.0,14.,12.0
1979-07-11 15:14:27.450 ,3,1,55.,12.0,0.,12.0,0.,12.0,3.,12.0
1979-07-11 15:14:39.450 ,3,1,46.,12.0,0.,12.0,0.,12.0,6.,12.0
1979-07-11 15:14:51.450 ,3,0,62.,12.0,0.,12.0,0.,12.0,13.,12.0
1979-07-11 15:15:03.450 ,3,0,55.,12.0,0.,12.0,0.,12.0,9.,12.0
1979-07-11 15:15:15.450 ,4,1,51.,12.0,0.,12.0,0.,12.0,8.,12.0
1979-07-11 15:15:27.450 ,4,1,57.,12.0,0.,12.0,0.,12.0,9.,12.0
1979-07-11 15:15:39.450 ,4,0,59.,12.0,0.,12.0,0.,12.0,10.,12.0
1979-07-11 15:15:51.450 ,4,0,59.,12.0,0.,12.0,0.,12.0,8.,12.0
1979-07-11 15:16:03.450 ,5,1,58.,12.0,0.,12.0,0.,12.0,6.,12.0
1979-07-11 15:16:15.450 ,5,1,43.,12.0,0.,12.0,0.,12.0,9.,12.0
1979-07-11 15:16:27.450 ,5,0,48.,12.0,0.,12.0,0.,12.0,9.,12.0
1979-07-11 15:16:39.450 ,5,0,48.,12.0,0.,12.0,0.,12.0,7.,12.0
1979-07-11 15:16:51.450 ,6,1,64.,12.0,0.,12.0,0.,12.0,7.,12.0
1979-07-11 15:17:03.450 ,6,1,59.,12.0,0.,12.0,0.,12.0,4.,12.0
1979-07-11 15:17:15.450 ,6,0,55.,12.0,0.,12.0,0.,12.0,12.,12.0
1979-07-11 15:17:27.450 ,6,0,51.,12.0,0.,12.0,0.,12.0,7.,12.0
1979-07-11 15:17:39.450 ,7,1,55.,12.0,0.,12.0,0.,12.0,11.,12.0
1979-07-11 15:17:51.450 ,7,1,3.,12.0,0.,12.0,0.,12.0,0.,12.0
1979-07-11 15:18:03.450 ,7,0,0.,12.0,0.,12.0,0.,12.0,0.,12.0
1979-07-11 15:18:15.450 ,7,0,0.,12.0,0.,12.0,0.,12.0,0.,12.0
1979-07-11 15:18:27.450 ,7,1,0.,12.0,0.,12.0,0.,12.0,0.,12.0
1979-07-11 15:18:39.450 ,7,1,0.,12.0,0.,12.0,0.,12.0,0.,12.0
1979-07-11 15:18:51.450 ,7,0,0.,12.0,0.,12.0,0.,12.0,0.,12.0
1979-07-11 15:19:03.450 ,7,0,0.,12.0,0.,12.0,0.,12.0,0.,12.0
1979-07-11 15:19:15.450 ,6,1,0.,12.0,0.,12.0,0.,12.0,0.,12.0
1979-07-11 15:19:27.450 ,6,1,36.,12.0,0.,12.0,0.,12.0,7.,12.0
1979-07-11 15:19:39.450 ,6,0,58.,12.0,0.,12.0,0.,12.0,5.,12.0
1979-07-11 15:19:51.450 ,6,0,54.,12.0,0.,12.0,0.,12.0,8.,12.0
1979-07-11 15:20:03.450 ,5,1,53.,12.0,0.,12.0,0.,12.0,13.,12.0
1979-07-11 15:20:15.450 ,5,1,54.,12.0,0.,12.0,0.,12.0,14.,12.0
1979-07-11 15:20:27.450 ,5,0,74.,12.0,0.,12.0,0.,12.0,16.,12.0
1979-07-11 15:20:39.450 ,5,0,72.,12.0,0.,12.0,0.,12.0,8.,12.0
1979-07-11 15:20:51.450 ,4,1,72.,12.0,0.,12.0,0.,12.0,8.,12.0
1979-07-11 15:21:03.450 ,4,1,66.,12.0,0.,12.0,0.,12.0,7.,12.0
1979-07-11 15:21:15.450 ,4,0,74.,12.0,0.,12.0,0.,12.0,12.,12.0
1979-07-11 15:21:27.450 ,4,0,66.,12.0,0.,12.0,0.,12.0,14.,12.0
1979-07-11 15:21:39.450 ,3,1,60.,12.0,0.,12.0,0.,12.0,9.,12.0
1979-07-11 15:21:51.450 ,3,1,55.,12.0,0.,12.0,0.,12.0,6.,12.0
1979-07-11 15:22:03.450 ,3,0,49.,12.0,0.,12.0,0.,12.0,3.,12.0
1979-07-11 15:22:15.450 ,3,0,56.,12.0,0.,12.0,0.,12.0,10.,12.0
1979-07-11 15:22:27.450 ,2,1,51.,12.0,0.,12.0,0.,12.0,7.,12.0
1979-07-11 15:22:39.450 ,2,1,64.,12.0,0.,12.0,0.,12.0,10.,12.0
1979-07-11 15:22:51.450 ,2,0,58.,12.0,0.,12.0,0.,12.0,7.,12.0
1979-07-11 15:23:03.450 ,2,0,59.,12.0,0.,12.0,0.,12.0,9.,12.0
1979-07-11 15:23:15.450 ,1,1,54.,12.0,0.,12.0,0.,12.0,11.,12.0
1979-07-11 15:23:27.450 ,1,1,43.,12.0,0.,12.0,0.,12.0,5.,12.0
1979-07-11 15:23:39.450 ,1,0,56.,12.0,0.,12.0,0.,12.0,10.,12.0
1979-07-11 15:23:51.450 ,1,0,49.,12.0,0.,12.0,0.,12.0,3.,12.0
1979-07-11 15:24:03.450 ,0,1,44.,12.0,0.,12.0,0.,12.0,4.,12.0
1979-07-11 15:24:15.450 ,0,1,42.,12.0,0.,12.0,0.,12.0,10.,12.0
1979-07-11 15:24:27.450 ,0,0,40.,12.0,0.,12.0,0.,12.0,7.,12.0
1979-07-11 15:24:39.450 ,0,0,50.,12.0,0.,12.0,0.,12.0,9.,12.0
1979-07-11 15:24:51.450 ,0,1,55.,12.0,0.,12.0,0.,12.0,10.,12.0
1979-07-11 15:25:03.450 ,0,1,45.,12.0,0.,12.0,0.,12.0,8.,12.0
1979-07-11 15:25:15.450 ,0,0,43.,12.0,0.,12.0,0.,12.0,4.,12.0
1979-07-11 15:25:27.450 ,0,0,38.,12.0,0.,12.0,0.,12.0,8.,12.0
1979-07-11 15:25:39.450 ,1,1,35.,12.0,0.,12.0,0.,12.0,9.,12.0
1979-07-11 15:25:51.450 ,1,1,49.,12.0,0.,12.0,0.,12.0,11.,12.0
1979-07-11 15:26:03.450 ,1,0,38.,12.0,0.,12.0,0.,12.0,6.,12.0
1979-07-11 15:26:15.450 ,1,0,39.,12.0,0.,12.0,0.,12.0,5.,12.0
1979-07-11 15:26:27.450 ,2,1,55.,12.0,0.,12.0,0.,12.0,5.,12.0
1979-07-11 15:26:39.450 ,2,1,61.,12.0,0.,12.0,0.,12.0,9.,12.0
1979-07-11 15:26:51.450 ,2,0,57.,12.0,0.,12.0,0.,12.0,7.,12.0
1979-07-11 15:27:03.450 ,2,0,36.,12.0,0.,12.0,0.,12.0,4.,12.0
1979-07-11 15:27:15.450 ,3,1,55.,12.0,0.,12.0,0.,12.0,9.,12.0
1979-07-11 15:27:27.450 ,3,1,82.,12.0,0.,12.0,0.,12.0,9.,12.0
1979-07-11 15:27:39.450 ,3,0,63.,12.0,0.,12.0,0.,12.0,10.,12.0
1979-07-11 15:27:51.450 ,3,0,63.,12.0,0.,12.0,0.,12.0,16.,12.0
1979-07-11 15:28:03.450 ,4,1,64.,12.0,0.,12.0,0.,12.0,13.,12.0
1979-07-11 15:28:15.450 ,4,1,70.,12.0,0.,12.0,0.,12.0,11.,12.0
1979-07-11 15:28:27.450 ,4,0,59.,12.0,0.,12.0,0.,12.0,8.,12.0
1979-07-11 15:28:39.450 ,4,0,62.,12.0,0.,12.0,0.,12.0,13.,12.0
1979-07-11 15:28:51.450 ,5,1,72.,12.0,0.,12.0,0.,12.0,7.,12.0
1979-07-11 15:29:03.450 ,5,1,72.,12.0,0.,12.0,0.,12.0,12.,12.0
1979-07-11 15:29:15.450 ,5,0,80.,12.0,0.,12.0,0.,12.0,20.,12.0
1979-07-11 15:29:27.450 ,5,0,76.,12.0,0.,12.0,0.,12.0,6.,12.0
1979-07-11 15:29:39.450 ,6,1,53.,12.0,0.,12.0,0.,12.0,15.,12.0
1979-07-11 15:29:51.450 ,6,1,61.,12.0,0.,12.0,0.,12.0,11.,12.0
1979-07-11 15:30:03.450 ,6,0,70.,12.0,0.,12.0,0.,12.0,12.,12.0
1979-07-11 15:30:15.450 ,6,0,58.,12.0,0.,12.0,0.,12.0,8.,12.0
1979-07-11 15:30:27.450 ,7,0,56.,12.0,0.,12.0,0.,12.0,15.,12.0
1979-07-11 15:30:39.450 ,7,0,12.,12.0,0.,12.0,0.,12.0,0.,12.0
1979-07-11 15:30:51.450 ,7,0,0.,12.0,0.,12.0,0.,12.0,0.,12.0
1979-07-11 15:31:03.450 ,7,0,0.,12.0,0.,12.0,0.,12.0,0.,12.0
1979-07-11 15:31:15.450 ,4,1,21.,12.0,0.,12.0,0.,12.0,2.,12.0
1979-07-11 15:31:27.450 ,4,1,63.,12.0,0.,12.0,0.,12.0,10.,12.0
1979-07-11 15:31:39.450 ,0,1,56.,12.0,0.,12.0,0.,12.0,5.,12.0
1979-07-11 15:31:51.450 ,0,1,41.,12.0,0.,12.0,0.,12.0,5.,12.0
1979-07-11 15:32:03.450 ,3,1,36.,12.0,0.,12.0,0.,12.0,4.,12.0
1979-07-11 15:32:15.450 ,3,1,70.,12.0,0.,12.0,0.,12.0,10.,12.0
1979-07-11 15:32:27.450 ,7,1,82.,12.0,0.,12.0,0.,12.0,11.,12.0
1979-07-11 15:32:39.450 ,7,1,36.,12.0,0.,12.0,0.,12.0,9.,12.0
1979-07-11 15:32:51.450 ,4,1,22.,12.0,0.,12.0,0.,12.0,2.,12.0
1979-07-11 15:33:03.450 ,4,1,74.,12.0,0.,12.0,0.,12.0,10.,12.0
1979-07-11 15:33:15.450 ,0,1,59.,12.0,0.,12.0,0.,12.0,12.,12.0
1979-07-11 15:33:27.450 ,0,1,58.,12.0,0.,12.0,0.,12.0,7.,12.0
1979-07-11 15:33:39.450 ,3,1,41.,12.0,0.,12.0,0.,12.0,4.,12.0
1979-07-11 15:33:51.450 ,3,1,43.,12.0,0.,12.0,0.,12.0,10.,12.0
1979-07-11 15:34:03.450 ,7,1,70.,12.0,0.,12.0,0.,12.0,10.,12.0
1979-07-11 15:34:15.450 ,7,1,38.,12.0,0.,12.0,0.,12.0,7.,12.0
1979-07-11 15:34:27.450 ,4,1,20.,12.0,0.,12.0,0.,12.0,0.,12.0
1979-07-11 15:34:39.450 ,4,1,68.,12.0,0.,12.0,0.,12.0,9.,12.0
1979-07-11 15:34:51.450 ,0,1,64.,12.0,0.,12.0,0.,12.0,14.,12.0
1979-07-11 15:35:03.450 ,0,1,41.,12.0,0.,12.0,0.,12.0,7.,12.0
1979-07-11 15:35:15.450 ,3,1,47.,12.0,0.,12.0,0.,12.0,8.,12.0
1979-07-11 15:35:27.450 ,3,1,54.,12.0,0.,12.0,0.,12.0,11.,12.0
1979-07-11 15:35:39.450 ,7,1,76.,12.0,0.,12.0,0.,12.0,3.,12.0
1979-07-11 15:35:51.450 ,7,1,47.,12.0,0.,12.0,0.,12.0,10.,12.0
1979-07-11 15:36:03.450 ,4,1,29.,12.0,0.,12.0,0.,12.0,0.,12.0
1979-07-11 15:36:15.450 ,4,1,68.,12.0,0.,12.0,0.,12.0,13.,12.0
1979-07-11 15:36:27.450 ,0,1,48.,12.0,0.,12.0,0.,12.0,5.,12.0
1979-07-11 15:36:39.450 ,0,1,42.,12.0,0.,12.0,0.,12.0,6.,12.0
1979-07-11 15:36:51.450 ,3,1,45.,12.0,0.,12.0,0.,12.0,9.,12.0
1979-07-11 15:37:03.450 ,3,1,50.,12.0,0.,12.0,0.,12.0,10.,12.0
1979-07-11 15:37:15.450 ,7,1,64.,12.0,0.,12.0,0.,12.0,15.,12.0
1979-07-11 15:37:27.450 ,7,1,39.,12.0,0.,12.0,0.,12.0,5.,12.0
1979-07-11 15:37:39.450 ,4,1,22.,12.0,0.,12.0,0.,12.0,1.,12.0
1979-07-11 15:37:51.450 ,4,1,68.,12.0,0.,12.0,0.,12.0,9.,12.0
1979-07-11 15:38:03.450 ,0,1,54.,12.0,0.,12.0,0.,12.0,9.,12.0
1979-07-11 15:38:15.450 ,0,1,58.,12.0,0.,12.0,0.,12.0,6.,12.0
1979-07-11 15:38:27.450 ,3,1,46.,12.0,0.,12.0,0.,12.0,4.,12.0
1979-07-11 15:38:39.450 ,3,1,68.,12.0,0.,12.0,0.,12.0,6.,12.0
1979-07-11 15:38:51.450 ,7,1,66.,12.0,0.,12.0,0.,12.0,12.,12.0
1979-07-11 15:39:03.450 ,7,1,39.,12.0,0.,12.0,0.,12.0,9.,12.0
1979-07-11 15:39:15.450 ,4,1,20.,12.0,0.,12.0,0.,12.0,3.,12.0
1979-07-11 15:39:27.450 ,4,1,63.,12.0,0.,12.0,0.,12.0,9.,12.0
1979-07-11 15:39:39.450 ,0,1,64.,12.0,0.,12.0,0.,12.0,4.,12.0
1979-07-11 15:39:51.450 ,0,1,52.,12.0,0.,12.0,0.,12.0,5.,12.0
1979-07-11 15:40:03.450 ,3,1,42.,12.0,0.,12.0,0.,12.0,4.,12.0
1979-07-11 15:40:15.450 ,3,1,72.,12.0,0.,12.0,0.,12.0,3.,12.0
1979-07-11 15:40:27.450 ,7,1,58.,12.0,0.,12.0,0.,12.0,7.,12.0
1979-07-11 15:40:39.450 ,7,1,30.,12.0,0.,12.0,0.,12.0,8.,12.0
1979-07-11 15:40:51.450 ,4,1,22.,12.0,0.,12.0,0.,12.0,2.,12.0
1979-07-11 15:41:03.450 ,4,1,59.,12.0,0.,12.0,0.,12.0,8.,12.0
1979-07-11 15:41:15.450 ,0,1,49.,12.0,0.,12.0,0.,12.0,14.,12.0
1979-07-11 15:41:27.450 ,0,1,47.,12.0,0.,12.0,0.,12.0,7.,12.0
1979-07-11 15:41:39.450 ,0,0,48.,12.0,0.,12.0,0.,12.0,2.,12.0
1979-07-11 15:41:51.450 ,0,0,57.,12.0,0.,12.0,0.,12.0,6.,12.0
1979-07-11 15:42:03.450 ,0,0,88.,12.0,0.,12.0,0.,12.0,8.,12.0
1979-07-11 15:42:15.450 ,0,0,39.,12.0,0.,12.0,0.,12.0,5.,12.0
1979-07-11 15:42:27.450 ,5,1,22.,12.0,0.,12.0,0.,12.0,1.,12.0
1979-07-11 15:42:39.450 ,5,1,72.,12.0,0.,12.0,0.,12.0,13.,12.0
1979-07-11 15:42:51.450 ,5,0,90.,12.0,0.,12.0,0.,12.0,5.,12.0
1979-07-11 15:43:03.450 ,5,0,62.,12.0,0.,12.0,0.,12.0,7.,12.0
1979-07-11 15:43:15.450 ,4,1,82.,12.0,0.,12.0,0.,12.0,12.,12.0
1979-07-11 15:43:27.450 ,4,1,76.,12.0,0.,12.0,0.,12.0,8.,12.0
1979-07-11 15:43:39.450 ,4,0,70.,12.0,0.,12.0,0.,12.0,5.,12.0
1979-07-11 15:43:51.450 ,4,0,61.,12.0,0.,12.0,0.,12.0,15.,12.0
1979-07-11 15:44:03.450 ,3,1,59.,12.0,0.,12.0,0.,12.0,8.,12.0
1979-07-11 15:44:15.450 ,3,1,56.,12.0,0.,12.0,0.,12.0,9.,12.0
1979-07-11 15:44:27.450 ,3,0,66.,12.0,0.,12.0,0.,12.0,11.,12.0
1979-07-11 15:44:39.450 ,3,0,60.,12.0,0.,12.0,0.,12.0,6.,12.0
1979-07-11 15:44:51.450 ,2,1,57.,12.0,0.,12.0,0.,12.0,8.,12.0
1979-07-11 15:45:03.450 ,2,1,52.,12.0,0.,12.0,0.,12.0,16.,12.0
1979-07-11 15:45:15.450 ,2,0,47.,12.0,1.,12.0,0.,12.0,6.,12.0
1979-07-11 15:45:27.450 ,2,0,66.,12.0,0.,12.0,0.,12.0,9.,12.0
1979-07-11 15:45:39.450 ,1,1,50.,12.0,0.,12.0,0.,12.0,11.,12.0
1979-07-11 15:45:51.450 ,1,1,53.,12.0,0.,12.0,0.,12.0,5.,12.0
1979-07-11 15:46:03.450 ,1,0,34.,12.0,0.,12.0,0.,12.0,0.,12.0
1979-07-11 15:46:15.450 ,1,0,59.,12.0,0.,12.0,0.,12.0,4.,12.0
1979-07-11 15:46:27.450 ,0,1,64.,12.0,0.,12.0,0.,12.0,6.,12.0
1979-07-11 15:46:39.450 ,0,1,48.,12.0,0.,12.0,0.,12.0,2.,12.0
1979-07-11 15:46:51.450 ,0,0,39.,12.0,0.,12.0,0.,12.0,6.,12.0
1979-07-11 15:47:03.450 ,0,0,42.,12.0,0.,12.0,0.,12.0,1.,12.0
1979-07-11 15:47:15.450 ,0,1,32.,12.0,0.,12.0,0.,12.0,4.,12.0
1979-07-11 15:47:27.450 ,0,1,38.,12.0,0.,12.0,0.,12.0,4.,12.0
1979-07-11 15:47:39.450 ,0,0,39.,12.0,0.,12.0,0.,12.0,3.,12.0
1979-07-11 15:47:51.450 ,0,0,34.,12.0,0.,12.0,0.,12.0,6.,12.0
1979-07-11 15:48:03.450 ,1,1,26.,12.0,0.,12.0,0.,12.0,3.,12.0
1979-07-11 15:48:15.450 ,1,1,45.,12.0,0.,12.0,0.,12.0,6.,12.0
1979-07-11 15:48:27.450 ,1,0,46.,12.0,0.,12.0,0.,12.0,5.,12.0
1979-07-11 15:48:39.450 ,1,0,50.,12.0,0.,12.0,0.,12.0,2.,12.0
1979-07-11 15:48:51.450 ,2,1,41.,12.0,0.,12.0,0.,12.0,4.,12.0
1979-07-11 15:49:03.450 ,2,1,40.,12.0,0.,12.0,0.,12.0,2.,12.0
1979-07-11 15:49:15.450 ,2,0,47.,12.0,0.,12.0,0.,12.0,3.,12.0
1979-07-11 15:49:27.450 ,2,0,44.,12.0,0.,12.0,0.,12.0,7.,12.0
1979-07-11 15:49:39.450 ,3,1,43.,12.0,0.,12.0,0.,12.0,3.,12.0
1979-07-11 15:49:51.450 ,3,1,35.,12.0,0.,12.0,0.,12.0,7.,12.0
1979-07-11 15:50:03.450 ,3,0,52.,12.0,0.,12.0,0.,12.0,3.,12.0
1979-07-11 15:50:15.450 ,3,0,45.,12.0,0.,12.0,0.,12.0,6.,12.0
1979-07-11 15:50:27.450 ,4,1,44.,12.0,0.,12.0,0.,12.0,2.,12.0
1979-07-11 15:50:39.450 ,4,1,34.,12.0,0.,12.0,0.,12.0,5.,12.0
1979-07-11 15:50:51.450 ,4,0,44.,12.0,0.,12.0,0.,12.0,9.,12.0
1979-07-11 15:51:03.450 ,4,0,44.,12.0,0.,12.0,0.,12.0,10.,12.0
1979-07-11 15:51:15.450 ,5,1,33.,12.0,0.,12.0,0.,12.0,5.,12.0
1979-07-11 15:51:27.450 ,5,1,43.,12.0,0.,12.0,0.,12.0,6.,12.0
1979-07-11 15:51:39.450 ,5,0,38.,12.0,0.,12.0,0.,12.0,4.,12.0
1979-07-11 15:51:51.450 ,5,0,35.,12.0,0.,12.0,0.,12.0,4.,12.0
1979-07-11 15:52:03.450 ,6,1,38.,12.0,0.,12.0,0.,12.0,3.,12.0
1979-07-11 15:52:15.450 ,6,1,31.,12.0,0.,12.0,0.,12.0,4.,12.0
1979-07-11 15:52:27.450 ,6,0,29.,12.0,0.,12.0,0.,12.0,6.,12.0
1979-07-11 15:52:39.450 ,6,0,25.,12.0,0.,12.0,0.,12.0,5.,12.0
1979-07-11 15:52:51.450 ,7,1,32.,12.0,0.,12.0,0.,12.0,7.,12.0
1979-07-11 15:53:03.450 ,7,1,8.,12.0,0.,12.0,0.,12.0,1.,12.0
1979-07-11 15:53:15.450 ,7,0,0.,12.0,0.,12.0,0.,12.0,0.,12.0
1979-07-11 15:53:27.450 ,7,0,0.,12.0,0.,12.0,0.,12.0,0.,12.0
1979-07-11 15:53:39.450 ,7,1,0.,12.0,0.,12.0,0.,12.0,0.,12.0
1979-07-11 15:53:51.450 ,7,1,0.,12.0,0.,12.0,0.,12.0,0.,12.0
1979-07-11 15:54:03.450 ,7,0,0.,12.0,0.,12.0,0.,12.0,0.,12.0
1979-07-11 15:54:15.450 ,7,0,1.,12.0,0.,12.0,0.,12.0,0.,12.0
1979-07-11 15:54:27.450 ,6,1,0.,12.0,0.,12.0,0.,12.0,0.,12.0
1979-07-11 15:54:39.450 ,6,1,23.,12.0,0.,12.0,0.,12.0,5.,12.0
1979-07-11 15:54:51.450 ,6,0,31.,12.0,0.,12.0,0.,12.0,4.,12.0
1979-07-11 15:55:03.450 ,6,0,24.,12.0,0.,12.0,0.,12.0,0.,12.0
1979-07-11 15:55:15.450 ,5,1,20.,12.0,0.,12.0,0.,12.0,2.,12.0
1979-07-11 15:55:27.450 ,5,1,43.,12.0,0.,12.0,0.,12.0,10.,12.0
1979-07-11 15:55:39.450 ,5,0,37.,12.0,0.,12.0,0.,12.0,7.,12.0
1979-07-11 15:55:51.450 ,5,0,32.,12.0,0.,12.0,0.,12.0,6.,12.0
1979-07-11 15:56:03.450 ,4,1,37.,12.0,0.,12.0,0.,12.0,5.,12.0
1979-07-11 15:56:15.450 ,4,1,22.,12.0,0.,12.0,0.,12.0,2.,12.0
1979-07-11 15:56:27.450 ,4,0,41.,12.0,0.,12.0,0.,12.0,3.,12.0
1979-07-11 15:56:39.450 ,4,0,41.,12.0,0.,12.0,0.,12.0,7.,12.0
1979-07-11 15:56:51.450 ,3,1,44.,12.0,0.,12.0,0.,12.0,2.,12.0
1979-07-11 15:57:03.450 ,3,1,27.,12.0,0.,12.0,0.,12.0,4.,12.0
1979-07-11 15:57:15.450 ,3,0,26.,12.0,0.,12.0,0.,12.0,4.,12.0
1979-07-11 15:57:27.450 ,3,0,29.,12.0,0.,12.0,0.,12.0,4.,12.0
1979-07-11 15:57:39.450 ,2,1,31.,12.0,0.,12.0,0.,12.0,8.,12.0
1979-07-11 15:57:51.450 ,2,1,22.,12.0,0.,12.0,0.,12.0,5.,12.0
1979-07-11 15:58:03.450 ,2,0,17.,12.0,0.,12.0,0.,12.0,1.,12.0
1979-07-11 15:58:15.450 ,2,0,22.,12.0,0.,12.0,0.,12.0,2.,12.0
1979-07-11 15:58:27.450 ,1,1,26.,12.0,0.,12.0,0.,12.0,5.,12.0
1979-07-11 15:58:39.450 ,1,1,17.,12.0,0.,12.0,0.,12.0,3.,12.0
1979-07-11 15:58:51.450 ,1,0,19.,12.0,0.,12.0,0.,12.0,1.,12.0
1979-07-11 15:59:03.450 ,1,0,23.,12.0,0.,12.0,0.,12.0,3.,12.0
1979-07-11 15:59:15.450 ,0,1,15.,12.0,0.,12.0,0.,12.0,5.,12.0
1979-07-11 15:59:27.450 ,0,1,21.,12.0,0.,12.0,0.,12.0,2.,12.0
1979-07-11 15:59:39.450 ,0,0,17.,12.0,0.,12.0,0.,12.0,2.,12.0
1979-07-11 15:59:51.450 ,0,0,18.,12.0,0.,12.0,0.,12.0,1.,12.0
1979-07-11 16:00:03.450 ,0,1,22.,12.0,0.,12.0,0.,12.0,4.,12.0
1979-07-11 16:00:15.450 ,0,1,18.,12.0,0.,12.0,0.,12.0,3.,12.0
1979-07-11 16:00:27.450 ,0,0,26.,12.0,0.,12.0,0.,12.0,1.,12.0
1979-07-11 16:00:39.450 ,0,0,15.,12.0,0.,12.0,0.,12.0,3.,12.0
1979-07-11 16:00:51.450 ,1,1,12.,12.0,0.,12.0,0.,12.0,4.,12.0
1979-07-11 16:01:03.450 ,1,1,25.,12.0,0.,12.0,0.,12.0,4.,12.0
1979-07-11 16:01:15.450 ,1,0,24.,12.0,0.,12.0,0.,12.0,3.,12.0
1979-07-11 16:01:27.450 ,1,0,24.,12.0,0.,12.0,0.,12.0,1.,12.0
1979-07-11 16:01:39.450 ,2,1,30.,12.0,0.,12.0,0.,12.0,2.,12.0
1979-07-11 16:01:51.450 ,2,1,21.,12.0,0.,12.0,0.,12.0,2.,12.0
1979-07-11 16:02:03.450 ,2,0,22.,12.0,0.,12.0,0.,12.0,2.,12.0
1979-07-11 16:02:15.450 ,2,0,15.,12.0,0.,12.0,0.,12.0,4.,12.0
1979-07-11 16:02:27.450 ,3,1,20.,12.0,0.,12.0,0.,12.0,3.,12.0
1979-07-11 16:02:39.450 ,3,1,18.,12.0,0.,12.0,0.,12.0,3.,12.0
1979-07-11 16:02:51.450 ,3,0,14.,12.0,0.,12.0,0.,12.0,2.,12.0
1979-07-11 16:03:03.450 ,3,0,18.,12.0,0.,12.0,0.,12.0,4.,12.0
1979-07-11 16:03:15.450 ,4,1,17.,12.0,0.,12.0,0.,12.0,1.,12.0
1979-07-11 16:03:27.450 ,4,1,25.,12.0,0.,12.0,0.,12.0,3.,12.0
1979-07-11 16:03:39.450 ,4,0,17.,12.0,0.,12.0,0.,12.0,1.,12.0
1979-07-11 16:03:51.450 ,4,0,18.,12.0,0.,12.0,0.,12.0,1.,12.0
1979-07-11 16:04:03.450 ,5,1,16.,12.0,0.,12.0,0.,12.0,4.,12.0
1979-07-11 16:04:15.450 ,5,1,25.,12.0,0.,12.0,0.,12.0,4.,12.0
1979-07-11 16:04:27.450 ,5,0,21.,12.0,0.,12.0,0.,12.0,2.,12.0
1979-07-11 16:04:39.450 ,5,0,28.,12.0,0.,12.0,0.,12.0,1.,12.0
1979-07-11 16:04:51.450 ,6,1,18.,12.0,0.,12.0,0.,12.0,4.,12.0
1979-07-11 16:05:03.450 ,6,1,15.,12.0,0.,12.0,0.,12.0,6.,12.0
1979-07-11 16:05:15.450 ,6,0,22.,12.0,0.,12.0,0.,12.0,0.,12.0
1979-07-11 16:05:27.450 ,6,0,14.,12.0,0.,12.0,0.,12.0,2.,12.0
1979-07-11 16:05:39.450 ,7,1,24.,12.0,0.,12.0,0.,12.0,4.,12.0
1979-07-11 16:05:51.450 ,7,1,3.,12.0,0.,12.0,0.,12.0,0.,12.0
1979-07-11 16:06:03.450 ,7,0,0.,12.0,0.,12.0,0.,12.0,0.,12.0
1979-07-11 16:06:15.450 ,7,0,0.,12.0,0.,12.0,0.,12.0,0.,12.0
1979-07-11 16:06:27.450 ,7,1,0.,12.0,0.,12.0,0.,12.0,0.,12.0
1979-07-11 16:06:39.450 ,7,1,0.,12.0,0.,12.0,0.,12.0,0.,12.0
1979-07-11 16:06:51.450 ,7,0,0.,12.0,0.,12.0,0.,12.0,0.,12.0
1979-07-11 16:07:03.450 ,7,0,0.,12.0,0.,12.0,0.,12.0,0.,12.0
1979-07-11 16:07:15.450 ,6,1,0.,12.0,0.,12.0,0.,12.0,0.,12.0
1979-07-11 16:07:27.450 ,6,1,13.,12.0,0.,12.0,0.,12.0,4.,12.0
1979-07-11 16:07:39.450 ,6,0,11.,12.0,0.,12.0,0.,12.0,0.,12.0
1979-07-11 16:07:51.450 ,6,0,11.,12.0,0.,12.0,0.,12.0,0.,12.0
1979-07-11 16:08:03.450 ,5,1,22.,12.0,0.,12.0,0.,12.0,1.,12.0
1979-07-11 16:08:15.450 ,5,1,18.,12.0,0.,12.0,0.,12.0,4.,12.0
1979-07-11 16:08:27.450 ,5,0,15.,12.0,0.,12.0,0.,12.0,0.,12.0
1979-07-11 16:08:39.450 ,5,0,21.,12.0,0.,12.0,0.,12.0,3.,12.0
1979-07-11 16:08:51.450 ,4,1,17.,12.0,0.,12.0,0.,12.0,3.,12.0
1979-07-11 16:09:03.450 ,4,1,17.,12.0,0.,12.0,0.,12.0,3.,12.0
1979-07-11 16:09:15.450 ,4,0,15.,12.0,0.,12.0,0.,12.0,1.,12.0
1979-07-11 16:09:27.450 ,4,0,16.,12.0,0.,12.0,0.,12.0,4.,12.0
1979-07-11 16:09:39.450 ,3,1,16.,12.0,0.,12.0,0.,12.0,4.,12.0
1979-07-11 16:09:51.450 ,3,1,18.,12.0,0.,12.0,0.,12.0,5.,12.0
1979-07-11 16:10:03.450 ,3,0,16.,12.0,0.,12.0,0.,12.0,5.,12.0
1979-07-11 16:10:15.450 ,3,0,13.,12.0,0.,12.0,0.,12.0,2.,12.0
1979-07-11 16:10:27.450 ,2,1,12.,12.0,0.,12.0,0.,12.0,2.,12.0
1979-07-11 16:10:39.450 ,2,1,14.,12.0,0.,12.0,0.,12.0,2.,12.0
1979-07-11 16:10:51.450 ,2,0,17.,12.0,0.,12.0,0.,12.0,2.,12.0
1979-07-11 16:11:03.450 ,2,0,12.,12.0,0.,12.0,0.,12.0,5.,12.0
1979-07-11 16:11:15.450 ,1,1,11.,12.0,0.,12.0,0.,12.0,1.,12.0
1979-07-11 16:11:27.450 ,1,1,12.,12.0,0.,12.0,0.,12.0,1.,12.0
1979-07-11 16:11:39.450 ,1,0,10.,12.0,0.,12.0,0.,12.0,1.,12.0
1979-07-11 16:11:51.450 ,1,0,11.,12.0,0.,12.0,0.,12.0,3.,12.0
1979-07-11 16:12:03.450 ,0,1,14.,12.0,0.,12.0,0.,12.0,2.,12.0
1979-07-11 16:12:15.450 ,0,1,13.,12.0,0.,12.0,0.,12.0,2.,12.0
1979-07-11 16:12:27.450 ,0,0,13.,12.0,0.,12.0,0.,12.0,2.,12.0
1979-07-11 16:12:39.450 ,0,0,8.,12.0,0.,12.0,0.,12.0,1.,12.0
1979-07-11 16:12:51.450 ,0,1,12.,12.0,0.,12.0,0.,12.0,0.,12.0
1979-07-11 16:13:03.450 ,0,1,10.,12.0,0.,12.0,0.,12.0,2.,12.0
1979-07-11 16:13:15.450 ,0,0,10.,12.0,0.,12.0,0.,12.0,2.,12.0
1979-07-11 16:13:27.450 ,0,0,7.,12.0,0.,12.0,0.,12.0,1.,12.0
1979-07-11 16:13:39.450 ,1,1,10.,12.0,0.,12.0,0.,12.0,2.,12.0
1979-07-11 16:13:51.450 ,1,1,7.,12.0,0.,12.0,0.,12.0,1.,12.0
1979-07-11 16:14:03.450 ,1,0,6.,12.0,0.,12.0,0.,12.0,0.,12.0
1979-07-11 16:14:15.450 ,1,0,14.,12.0,0.,12.0,0.,12.0,0.,12.0
1979-07-11 16:14:27.450 ,2,1,8.,12.0,0.,12.0,0.,12.0,4.,12.0
1979-07-11 16:14:39.450 ,2,1,17.,12.0,0.,12.0,0.,12.0,2.,12.0
1979-07-11 16:14:51.450 ,2,0,13.,12.0,0.,12.0,0.,12.0,2.,12.0
1979-07-11 16:15:03.450 ,2,0,9.,12.0,0.,12.0,0.,12.0,2.,12.0
1979-07-11 16:15:15.450 ,3,1,9.,12.0,0.,12.0,0.,12.0,0.,12.0
1979-07-11 16:15:27.450 ,3,1,11.,12.0,0.,12.0,0.,12.0,3.,12.0
1979-07-11 16:15:39.450 ,3,0,16.,12.0,0.,12.0,0.,12.0,2.,12.0
1979-07-11 16:15:51.450 ,3,0,14.,12.0,0.,12.0,0.,12.0,1.,12.0
1979-07-11 16:16:03.450 ,4,1,15.,12.0,0.,12.0,0.,12.0,2.,12.0
1979-07-11 16:16:15.450 ,4,1,10.,12.0,0.,12.0,0.,12.0,2.,12.0
1979-07-11 16:16:27.450 ,4,0,13.,12.0,0.,12.0,0.,12.0,0.,12.0
1979-07-11 16:16:39.450 ,4,0,10.,12.0,0.,12.0,0.,12.0,3.,12.0
1979-07-11 16:16:51.450 ,5,1,18.,12.0,0.,12.0,0.,12.0,1.,12.0
1979-07-11 16:17:03.450 ,5,1,10.,12.0,0.,12.0,0.,12.0,1.,12.0
1979-07-11 16:17:15.450 ,5,0,11.,12.0,0.,12.0,0.,12.0,0.,12.0
1979-07-11 16:17:27.450 ,5,0,7.,12.0,0.,12.0,0.,12.0,3.,12.0
1979-07-11 16:17:39.450 ,6,1,17.,12.0,0.,12.0,0.,12.0,1.,12.0
1979-07-11 16:17:51.450 ,6,1,11.,12.0,0.,12.0,0.,12.0,2.,12.0
1979-07-11 16:18:03.450 ,6,0,11.,12.0,0.,12.0,0.,12.0,0.,12.0
1979-07-11 16:18:15.450 ,6,0,8.,12.0,0.,12.0,0.,12.0,0.,12.0
1979-07-11 16:18:27.450 ,7,0,7.,12.0,0.,12.0,0.,12.0,0.,12.0